Find Starlink 3330

NORAD ID: 50836 Int'l Des: 2022-001 Owner: SPXS Country: US Constellation: starlink operational
LEOCIRCULAR

現在のビュー

3D地球を読み込み中...

About Starlink 3330

Starlink 3330 (NORAD 50836) is a starlink constellation satellite (v1.5) launched Jan 6, 2022 by SPXS of US. It operates in LEO, CIRCULAR orbit with a mass of 297.00 kg.

次回通過

Passes for default location (London). Set your location on the main map for personalized predictions.

高度履歴

Loading altitude history...

軌道要素

1 50836U 22001AK 26207.58569855 .00001332 00000-0 54679-4 0 9999
2 50836 53.1591 270.0992 0001328 73.8181 286.2967 15.31708597251205
Epoch: Jul 26, 2026 • Age: 21 hours

現在のステータス

高度 479.8 km
遠地点 / 近地点 N/A
速度 7.63 km/s
衛星直下点 -28.16°S, 5.98°W
打ち上げ日 Jan 6, 2022
運用期間 4.5 years
タイプ internet

技術仕様

分類 Payload
質量 297.00 kg
乾燥質量 275.00 kg
総質量 297.00 kg
長さ 0.20 m
直径 2.80 m
スパン 9.00 m
形状 Box + pan
製造者 SPXS
バスタイプ Starlink
フェーズステータス In Orbit
所有者/国 SPXS/US

Most Searched